Current weather by "City, St" or "zip code"  
 
Advertise Here

Current Conditions: Aurora Municipal Airport, IL

Fair


68.0 F

Last Updated on Jul 26 2021, 10:52 pm CDT
Humidity: 93%
Wind Speed: N 0.0 mph
Barometer 30.03 in
Dewpoint: 66.0 F
Visibility: 10.00 mi
Precip: --
Heat Index: NA
Wind Chill: NA
Current conditions at:

Aurora Municipal Airport, IL (KARR)

Lat: 41.77132 Lon: 88.48147

Local Radar Image active severe weather and emergency alerts image image weather storm and storm spotter reports image weather observation monitoring service image
Local
Radar
Active
Alerts
Storm Reports Obs
Monitoring

Sign-up For Email & Text Message Weather Alert Notification Services


Advertise Here

Observation History for Aurora Municipal Airport, IL


Time Wind
(mph)
Vis
(mi)
Weather Precip (in) Temperature (F) Relative
Humidity
Wind
Chill
(F)
Heat
Index
(F)
Pressure
Air Dwpt altimeter
(in)
sea level
(mb)
Rmks
10:52 pm CDT N 0.0 10.00 Fair -- 68.0 66.0 93% NA NA 30.03 1016.2
9:52 pm CDT S 5.8 10.00 Fair -- 74.0 66.9 79% NA NA 30.02 1016.0
8:52 pm CDT N 0.0 10.00 Fair -- 73.0 68.0 84% NA NA 30.01 1015.8
7:52 pm CDT SW 4.6 10.00 Fair -- 79.0 69.1 72% NA NA 30.01 1015.6
6:52 pm CDT W 3.5 10.00 Fair -- 82.0 72.0 72% NA 87 30.01 1015.8
5:52 pm CDT W 5.8 10.00 Fair -- 85.0 69.1 59% NA 89 30.02 1016.0
4:52 pm CDT W 6.9 10.00 Fair -- 87.0 66.9 51% NA 90 30.03 1016.3
3:52 pm CDT W 5.8 10.00 Fair -- 87.0 64.0 46% NA 88 30.03 1016.5
2:52 pm CDT NW 5.8 10.00 Fair -- 87.0 64.0 46% NA 88 30.04 1016.9
1:52 pm CDT W 4.6 10.00 Fair -- 87.0 64.0 46% NA 88 30.05 1016.9
12:52 pm CDT W 4.6 10.00 Fair -- 86.0 64.0 48% NA 87 30.05 1017.2
11:52 am CDT N 0.0 10.00 Fair -- 85.0 63.0 48% NA 86 30.06 1017.4
10:52 am CDT W 3.5 10.00 Fair -- 82.0 66.9 60% NA 84 30.06 1017.3
9:52 am CDT N 0.0 10.00 Fair -- 79.0 64.9 62% NA NA 30.05 1017.1
8:52 am CDT N 0.0 10.00 Fair -- 76.0 63.0 64% NA NA 30.05 1017.2
7:52 am CDT NW 3.5 10.00 Fair -- 70.0 64.0 82% NA NA 30.04 1016.9
6:52 am CDT NW 5.8 10.00 Fair -- 63.0 61.0 93% 63 NA 30.04 1016.6
5:52 am CDT W 3.5 10.00 Fair -- 59.0 57.0 93% NA NA 30.02 1016.2
4:52 am CDT W 3.5 10.00 Fair -- 60.0 57.9 93% NA NA 30.01 1015.9
3:52 am CDT W 4.6 10.00 Fair -- 60.0 57.9 93% 60 NA 30.00 1015.4
2:52 am CDT W 3.5 10.00 Fair -- 61.0 59.0 93% NA NA 29.99 1015.2
1:52 am CDT NW 4.6 10.00 Fair -- 62.0 60.1 93% 62 NA 30.00 1015.4
12:52 am CDT NW 4.6 10.00 Fair -- 64.0 62.1 93% NA NA 29.99 1015.1
11:52 pm CDT NW 4.6 10.00 Fair -- 65.0 63.0 93% NA NA 29.99 1014.9

Regional Weather Observation


Aurora Municipal Airport, IL (KARR)

Fair
68.0 F

Chicago / West Chicago, Dupage Airport, IL (KDPA)

Fair
73.0 F

Schaumburg Regional Airport, IL (K06C)

Fair
75.0 F

Rochelle, Rochelle Municipal-Koritz Field Airport, IL (KRPJ)

Fair
67.0 F

Lewis University Airport, IL (KLOT)

Fair
74.0 F

Joliet Regional Airport, IL (KJOT)

Fair
72.0 F
Advertise Here

Advertise Here